Location: Unspecified
(58.7730°N, 5.8460°E)
Time: 06:28:18
(UTC+02:00)

Resurs 1-4 Rocket - Visible Passes

Search period start: 30 March 2015 00:00
Search period end: 09 April 2015 00:00
Orbit: 800 x 815 km, 98.4° (Epoch: 29 March)

Date Brightness Start Highest point End Pass type
(mag) Time Alt. Az. Time Alt. Az. Time Alt. Az.
30 Mar 4.3 04:10:34 10° NE 04:14:34 22° E 04:18:39 10° SE visible
30 Mar 2.1 05:49:54 10° NNE 05:55:13 88° WNW 06:00:30 10° SSW visible
31 Mar 4.6 03:46:45 10° NE 03:49:40 15° E 03:52:46 10° ESE visible
31 Mar 2.5 05:25:25 10° NNE 05:30:41 66° ESE 05:35:56 10° S visible
01 Apr 5.0 03:24:30 10° ENE 03:24:40 10° ENE 03:25:07 10° E visible
01 Apr 3.1 05:01:01 10° NNE 05:06:05 46° E 05:11:08 10° S visible
02 Apr 3.7 04:36:42 10° NNE 04:41:23 32° E 04:46:06 10° SSE visible
02 Apr 2.2 06:16:26 10° NNE 06:21:39 61° WNW 06:26:50 10° SW visible
03 Apr 4.3 04:12:31 10° NE 04:16:35 23° E 04:20:44 10° SE visible
03 Apr 2.1 05:51:53 10° NNE 05:57:12 86° WNW 06:02:29 10° SSW visible
04 Apr 4.6 03:48:39 10° NE 03:51:42 16° E 03:54:55 10° ESE visible
04 Apr 2.4 05:27:24 10° NNE 05:32:41 68° ESE 05:37:56 10° S visible
05 Apr 4.9 03:25:48 10° ENE 03:26:43 10° ENE 03:27:53 10° E visible
05 Apr 3.1 05:02:59 10° NNE 05:08:05 47° E 05:13:10 10° S visible
06 Apr 3.7 04:38:39 10° NNE 04:43:24 33° E 04:48:09 10° SSE visible
07 Apr 4.2 04:14:28 10° NE 04:18:37 23° E 04:22:50 10° SE visible
07 Apr 2.1 05:53:53 10° NNE 05:59:11 83° WNW 06:04:27 10° SSW visible
08 Apr 4.6 03:50:33 10° NE 03:53:44 16° E 03:57:04 10° ESE visible
08 Apr 2.4 05:29:22 10° NNE 05:34:40 71° ESE 05:39:56 10° S visible
